Loisir ou Compétition : Rejoignez un Club de la Fédération

Résultats

CHAMPIONNAT DE FRANCE U16 - 1ère étape - PAYS ROCHOIS

GRAND BORNAND

FS Dames

Jury de Compétition

Délégué Technique :
MAGAND GUY (DA)
D.T. Adjoint :
FROSSARD CHRISTIAN (SA)
Dir. Epreuve :
ROGUET JEAN CLAUDE (MB)

Caractéristiques de la Piste

Piste :
AUBERGE NORDIQUE LORMAY
Distance :
5 km
Point Haut :
 
Point Bas :
 
Montée Tot. :
 
Montée Max. :
 
Homologation :
2010-4-1

Pénalité Appliquée :
90.0000
Coefficient :
800

Catégorie :
U16
Style :
L
Clt Dos Clt/Cat Code An Nom Prénom Com Club Temps Ecart Points
Classés
1 3 1/U16 FFS2667044 2002 VEYRE MAELLE AP MTGVE V.CLAR 16:17.2 00:00.0 90.00
2 24 2/U16 FFS2660755 2002 CLOETENS MAYA DA GUC GRENOBLE 16:25.6 00:08.4 96.88
3 4 3/U16 FFS2660280 2001 GAUTHIER ALEXIANE SA CS LA FECLAZ 16:35.9 00:18.7 105.31
4 15 4/U16 FFS2649539 2001 EVEN MAYA DA SA MEAUDRAIS 16:41.2 00:24.0 109.65
5 9 5/U16 FFS2665303 2002 MICHELON OCEANE SA BAUGES S.N 16:42.3 00:25.1 110.55
6 18 6/U16 FFS2641082 2001 POTTECHER ZELIE DA GUC GRENOBLE 16:46.4 00:29.2 113.91
7 2 7/U16 FFS2665517 2001 KUREK TANIA MB SCNP ROCHOIS 16:49.2 00:32.0 116.20
8 17 8/U16 FFS2668155 2002 SAVOIE LISA MJ HT JURA SKI 16:50.5 00:33.3 117.26
9 7 9/U16 FFS2665638 2001 GROSREY LOUNA MJ HT JURA SKI 16:51.0 00:33.8 117.67
10 5 10/U16 FFS2667719 2001 RENARD CHLOE MB SC GD BORNAN 16:53.8 00:36.6 119.96
11 29 11/U16 FFS2653209 2002 DUBOIS SALOMEE MJ SKI ROUSSES 16:54.8 00:37.6 120.78
12 13 12/U16 FFS2643665 2001 DUCHAUFOUR EVE ONDINE MJ SC GRANDVAUX 16:57.4 00:40.2 122.91
13 36 13/U16 FFS2655903 2002 BERTRAND FANY SA SC MERIBEL 17:00.1 00:42.9 125.12
14 21 14/U16 FFS2665310 2002 MUNIER ELODIE SA MONOLITHE SF 17:01.5 00:44.3 126.27
15 11 15/U16 FFS2649397 2001 CARRIER ROMANE LY SC BRENOD 17:03.0 00:45.8 127.49
16 20 16/U16 FFS2659929 2002 CERDAN ANNOUK LY US CORMARANC 17:03.1 00:45.9 127.58
17 26 17/U16 FFS2655477 2001 ABEL CLARA MV VAGNEY ROCHE 17:04.5 00:47.3 128.72
18 47 18/U16 FFS2676452 2002 PAGNIER CLOE MJ CHAUX NEUVE 17:04.8 00:47.6 128.97
19 6 19/U16 FFS2644719 2002 RICHON CAPUCINE SA CS LA FECLAZ 17:05.9 00:48.7 129.87
20 25 20/U16 FFS2676611 2002 COURVOISIER CELIA MJ SC MONT NOIR 17:06.8 00:49.6 130.61
21 19 21/U16 FFS2670903 2002 CROS JEANNE MB SC GD BORNAN 17:07.0 00:49.8 130.77
22 1 22/U16 FFS2670898 2002 PIERREL JULIE MB SC GD BORNAN 17:08.5 00:51.3 132.00
23 117 23/U16 FFS2665516 2001 LEHMANN LISA MB SCNP ROCHOIS 17:10.2 00:53.0 133.39
24 48 24/U16 FFS2665353 2001 LECOQ JAMMES NEMO MB CS CHAMONIX 17:10.8 00:53.6 133.88
25 10 25/U16 FFS2659922 2001 SUIFFET AMELIE SA CS LA FECLAZ 17:12.4 00:55.2 135.19
26 38 26/U16 FFS2665498 2002 ROCHE LUDMILLA AP AS EDELWEISS 17:13.3 00:56.1 135.93
27 49 27/U16 FFS2665748 2002 LAURENCE COLINE MJ CSR PONTARLI 17:20.0 01:02.8 141.41
28 16 28/U16 FFS2671780 2002 DIDIERLAURENT CLEMENCE MV VAGNEY ROCHE 17:21.2 01:04.0 142.39
29 39 29/U16 FFS2665618 2001 CAMPION LEANA PE SC FTROMEUP2 17:21.4 01:04.2 142.56
30 28 30/U16 FFS2665311 2002 VIGNOL MANON SA MONOLITHE SF 17:23.2 01:06.0 144.03
31 22 31/U16 FFS2654839 2002 GREAU ALIZEE LY SC BRENOD 17:24.6 01:07.4 145.18
32 23 32/U16 FFS2670554 2001 COUPE CAMILLE SA CS LA FECLAZ 17:28.3 01:11.1 148.21
33 35 33/U16 FFS2649019 2001 CUCCARO MANON DA VERCORS SKF 17:30.9 01:13.7 150.34
34 42 34/U16 FFS2652071 2002 RICHARD JEANNE MB LES GETS S.C 17:31.4 01:14.2 150.74
35 14 35/U16 FFS2647512 2002 CHAPPAZ FELICIE MB CS LA CLUSAZ 17:32.5 01:15.3 151.65
36 46 36/U16 FFS2661517 2002 LAUTH EVA DA VERCORS SKF 17:33.4 01:16.2 152.38
37 30 37/U16 FFS2660687 2002 GRUNEWALD ELEONORE DA VERCORS SKF 17:33.5 01:16.3 152.46
38 52 38/U16 FFS2653734 2001 CHICHIGNOUD MARGOT DA US AUTRANNAI 17:34.1 01:16.9 152.96
39 12 39/U16 FFS2665755 2001 JOMIER MAIWENN MB DRAGONS ANNY 17:36.5 01:19.3 154.92
40 56 40/U16 FFS2644226 2001 FOULON ELISE DA CS VILLARD 17:36.6 01:19.4 155.00
41 34 41/U16 FFS2672086 2002 JAEGGY EMILIE MV SC RANSPACH 17:36.9 01:19.7 155.25
42 51 42/U16 FFS2664153 2002 DUBOIS LOUNA DA CS VILLARD 17:43.2 01:26.0 160.41
43 33 43/U16 FFS2670906 2002 PLACE ISELINE MB SC GD BORNAN 17:46.3 01:29.1 162.94
44 70 44/U16 FFS2655891 2002 GUYON ANNA MJ SKI ROUSSES 17:46.6 01:29.4 163.19
45 62 45/U16 FFS2654837 2002 CHARVOLIN CANDICE LY SC BRENOD 17:47.2 01:30.0 163.68
46 44 46/U16 FFS2670902 2002 BASTARD ROSSET LUCIE MB SC GD BORNAN 17:55.3 01:38.1 170.31
47 63 47/U16 FFS2647523 2001 BONDIER GIRARD NOA SA SC MENUIRES 17:55.7 01:38.5 170.64
48 116 48/U16 FFS2661438 2001 FAVRE FLORINE SA SC ARECHES 18:00.7 01:43.5 174.73
49 8 49/U16 FFS2665514 2001 CHAMOUX MATHILDE MB SCNP ROCHOIS 18:01.2 01:44.0 175.14
50 32 50/U16 FFS2671448 2002 PATUREL DORINE MB SCNP ROCHOIS 18:06.5 01:49.3 179.48
51 40 51/U16 FFS2655476 2001 PIERRAT MARIE LOU MV VAGNEY ROCHE 18:09.0 01:51.8 181.53
52 71 52/U16 FFS2665287 2001 CHARVOLIN MARIE DA SNB CHAMROUS 18:09.9 01:52.7 182.26
53 114 53/U16 FFS2671190 2002 BILLET EMMA MJ OYE-PALLET 18:10.8 01:53.6 183.00
54 55 54/U16 FFS2665301 2002 RAMAZ ADELAIDE SA BAUGES S.N 18:12.8 01:55.6 184.64
55 27 55/U16 FFS2656588 2001 BARTHELEMY MAEVA AP LES TROLLS 18:12.9 01:55.7 184.72
56 37 56/U16 FFS2670897 2002 FAVRE BONVIN ZOE MB SC GD BORNAN 18:13.3 01:56.1 185.05
57 31 57/U16 FFS2671533 2001 COURTET MANON MJ A.S MOUTHE 18:13.6 01:56.4 185.29
58 41 58/U16 FFS2660497 2001 NICOLL EMILY DA US AUTRANNAI 18:14.1 01:56.9 185.70
59 53 59/U16 FFS2682651 2002 MORRAL FERANDIS MARIONA PE SC FTROMEUP2 18:14.8 01:57.6 186.28
60 57 60/U16 FFS2665400 2002 BARDINET ROMANE DA SNO 18:15.6 01:58.4 186.93
61 87 61/U16 FFS2660067 2002 BAJARD SOLENE DA SNB CHAMROUS 18:15.8 01:58.6 187.09
62 64 62/U16 FFS2649489 2002 GAILLARD MARGAUX DA SA MEAUDRAIS 18:19.0 02:01.8 189.71
63 123 63/U16 FFS2639569 2001 HENAFF ELOISE SA SC ARECHES 18:23.2 02:06.0 193.15
64 54 64/U16 FFS2660964 2001 GONTHARET MARIE SA SC PEISEY VA 18:26.4 02:09.2 195.77
65 58 65/U16 FFS2647938 2002 SILVE LOUNA AP ORRES EMBRUN 18:27.0 02:09.8 196.26
66 43 66/U16 FFS2655742 2002 GAULIER JULIETTE DA CS VILLARD 18:28.4 02:11.2 197.41
67 68 67/U16 FFS2670556 2002 PENDRY SHAWNA PE SC FTROMEUP2 18:28.8 02:11.6 197.74
68 89 68/U16 FFS2668931 2002 LAURENS LOUISA AP SC QUEYRAS 18:29.6 02:12.4 198.39
69 79 69/U16 FFS2663450 2002 GRISNAUX YSALINE SA SC MENUIRES 18:32.0 02:14.8 200.36
70 66 70/U16 FFS2671450 2002 SYLVESTRE BARON CLAIRE MB SCNP ROCHOIS 18:35.2 02:18.0 202.98
71 85 71/U16 FFS2668908 2002 GOALABRE ANNE AP SC QUEYRAS 18:35.4 02:18.2 203.14
72 45 72/U16 FFS2655708 2002 NIOGRET AGATHE LY CS VALROMEY 18:36.2 02:19.0 203.79
73 113 73/U16 FFS2670210 2002 MAUGER JULIE MB PRAZ LYS-SOM 18:38.6 02:21.4 205.76
74 99 74/U16 FFS2665904 2001 REVILLIOD ALBANE MB CS CHAMONIX 18:42.5 02:25.3 208.95
75 118 75/U16 FFS2670214 2002 GUILLAUMOT MARGOT MB PRAZ LYS-SOM 18:43.0 02:25.8 209.36
76 76 76/U16 FFS2670779 2002 FROIDURE CLEMENTINE MB SCNP ROCHOIS 18:43.6 02:26.4 209.85
77 78 77/U16 FFS2669082 2002 ELOY LILOU SA COURCHEVEL 18:47.9 02:30.7 213.37
77 128 77/U16 FFS2644094 2002 FORTINA NOEE MB SC CONTAMINE 18:47.9 02:30.7 213.37
79 91 79/U16 FFS2670930 2001 GAYTON SALOME AU SC MEZENC 18:49.6 02:32.4 214.76
80 72 80/U16 FFS2671033 2002 DUPONT LOUNA DA CS VILLARD 18:52.0 02:34.8 216.73
81 73 81/U16 FFS2676147 2002 FEUGUEUR ORLANE MB SC D'AGY 18:53.5 02:36.3 217.96
82 60 82/U16 FFS2670686 2001 BOEHM ELINE MV SC RANSPACH 18:53.8 02:36.6 218.20
83 92 83/U16 FFS2670559 2002 SAMSON EMMA PE SC FTROMEUP2 18:55.1 02:37.9 219.27
84 77 84/U16 FFS2666106 2002 VIGNEAU LUCIE MB CHABLAIS NOR 18:55.5 02:38.3 219.59
85 82 85/U16 FFS2656647 2001 MARTIN CHENAULT PAULA PE SC FTROMEUP2 18:59.7 02:42.5 223.03
86 75 86/U16 FFS2654800 2002 MAGNIER LUCIE DA US AUTRANNAI 19:00.1 02:42.9 223.36
87 86 87/U16 FFS2659930 2002 MOREL LENA LY US CORMARANC 19:03.4 02:46.2 226.06
88 61 88/U16 FFS2654667 2002 ANDREANI LUCILE DA CO SEPT LAUX 19:09.0 02:51.8 230.65
89 102 89/U16 FFS2678829 2002 REISS EMMA MB DRAGONS ANNY 19:09.1 02:51.9 230.73
90 74 90/U16 FFS2654873 2002 GROSSET LINA MB CS MEGEVE 19:11.0 02:53.8 232.28
91 69 91/U16 FFS2670390 2002 NEUBURGER MANON DA SNB CHAMROUS 19:12.4 02:55.2 233.43
92 127 92/U16 FFS2670597 2002 SAYSSAC CLARA MB CS CHAMONIX 19:14.3 02:57.1 234.99
93 65 93/U16 FFS2665601 2001 DUFOUR CLAIRANNE MB SC D'AGY 19:16.8 02:59.6 237.03
94 90 94/U16 FFS2657399 2002 LAMBRET CAMILLE DA CS VILLARD 19:19.3 03:02.1 239.08
95 67 95/U16 FFS2656544 2002 CROS MARIE DA CS VILLARD 19:29.2 03:12.0 247.18
96 59 96/U16 FFS2665286 2001 LEBARD LUCIE MB DRAGONS ANNY 19:33.1 03:15.9 250.38
97 111 97/U16 FFS2626639 2001 PARENT MATHILDE MB SC CONTAMINE 19:34.9 03:17.7 251.85
98 126 98/U16 FFS2665442 2001 BOUVIER AELIA MB PRAZ LYS-SOM 19:41.0 03:23.8 256.84
99 84 99/U16 FFS2670781 2002 MANDEL CLEMENCE MB SCNP ROCHOIS 19:43.4 03:26.2 258.81
100 115 100/U16 FFS2670961 2002 BRETON MATHILDE MB VILLARD/BOEG 19:56.1 03:38.9 269.21
101 107 101/U16 FFS2661053 2002 VOUILLAMOZ MARIE MB SALLANCHES 19:56.9 03:39.7 269.86
102 81 102/U16 FFS2655269 2002 GELDHOF LAURANNE DA SN CHARTROUS 19:57.0 03:39.8 269.94
103 96 103/U16 FFS2682650 2002 CLOCHEY FIONA MB LES GETS S.C 20:02.7 03:45.5 274.61
104 104 104/U16 FFS2665949 2001 OREMUS LOUISE MB VILLARD/BOEG 20:03.3 03:46.1 275.10
105 83 105/U16 FFS2660467 2001 SICRE NINON AU EM LA TOUR 20:05.2 03:48.0 276.66
106 120 106/U16 FFS2671368 2002 GIORDANO MADELINE MB VILLARD/BOEG 20:13.6 03:56.4 283.53
107 110 107/U16 FFS2674592 2002 FLAISSIER LOU MB CS CHAMONIX 20:14.6 03:57.4 284.35
108 94 108/U16 FFS2642417 2001 BERTINOTTI LISA MB CS LA CLUSAZ 20:28.4 04:11.2 295.65
109 119 109/U16 FFS2670734 2002 APPLAGNAT FLAVIE MB SC CONTAMINE 20:30.1 04:12.9 297.04
110 129 110/U16 FFS2644194 2002 PAVARANI JULIETTE MB SC CONTAMINE 20:31.8 04:14.6 298.43
111 80 111/U16 FFS2670258 2002 CREDOZ ALICIA MB CS LA CLUSAZ 20:34.3 04:17.1 300.48
112 108 112/U16 FFS2671130 2002 MERMOUD AMANDINE MB CS CHAMONIX 20:37.0 04:19.8 302.69
113 121 113/U16 FFS2665939 2001 DELBOS CHLOE MB VILLARD/BOEG 20:38.4 04:21.2 303.84
114 106 114/U16 FFS2671406 2002 ECHE HELOISE MB CS CHAMONIX 20:38.8 04:21.6 304.16
115 97 115/U16 FFS2667667 2002 DEMBOURG LUCIE PE SC FTROMEUP2 20:45.7 04:28.5 309.81
116 88 116/U16 FFS2670884 2002 LABBE THAIS DA GUC GRENOBLE 20:49.3 04:32.1 312.76
117 93 117/U16 FFS2672039 2002 ZURFLUH ALEXINE MB SCNP ROCHOIS 21:03.7 04:46.5 324.55
118 95 118/U16 FFS2666236 2001 GRENARD ROMANE MB SCNP ROCHOIS 21:07.2 04:50.0 327.41
119 101 119/U16 FFS2666579 2001 BOUYON CLEMENCE MB DRAGONS ANNY 21:45.9 05:28.7 359.10
120 105 120/U16 FFS2665941 2001 DAVID TIPHAINE MB VILLARD/BOEG 21:54.3 05:37.1 365.97
121 112 121/U16 FFS2665452 2001 MOGEON LEA MB PRAZ LYS-SOM 21:58.6 05:41.4 369.49
122 124 122/U16 FFS2665950 2001 DAVID MAELLE MB VILLARD/BOEG 22:06.8 05:49.6 376.21
123 103 123/U16 FFS2675758 2002 HOFFMANN EMMA MB DRAGONS ANNY 22:11.5 05:54.3 380.05
124 98 124/U16 FFS2671375 2001 BOUCHEREAU NEURY IRIS MB CS LA CLUSAZ 22:13.8 05:56.6 381.94
125 109 125/U16 FFS2677386 2002 MALOBERTI AMELIE MB DRAGONS ANNY 23:44.1 07:26.9 455.86
Abandons
50 FFS2646236 2001 ANULLIERO DOLMA MB CS CHAMONIX
Non partants
100 FFS2653736 2002 DUCOS AGATHE DA CS VILLARD
122 FFS2671187 2002 LAHEURTE PERRINE MJ OYE-PALLET
125 FFS2671069 2002 BLONDAZ BLANDINE MB CS CHAMONIX